| time (UTC) | temp C | wind direction | speed KPH | gust KPH | rain 1hr cm | rain 24hr cm | rain mn cm | humidity % | barometer mb |
| 20260901150015 | 17 | 177 | 3.2 | 8.0 | 0.00 | 0.00 | 0.00 | 44 | 1006.1 |
| 20260901144503 | 16 | 149 | 3.2 | 6.4 | 0.00 | 0.00 | 0.00 | 45 | 1005.9 |
| 20260901143101 | 16 | 130 | 3.2 | 6.4 | 0.00 | 0.00 | 0.00 | 46 | 1005.7 |
| 20260901141603 | 15 | 128 | 3.2 | 6.4 | 0.00 | 0.00 | 0.00 | 46 | 1005.8 |
| 20260901140058 | -17 | 0.0 | 0.0 | 0.00 | 0.00 | 0.00 | 1005.6 | ||
| 20260901134550 | -17 | 0.0 | 0.0 | 0.00 | 0.00 | 0.00 | 1005.5 | ||
| 20260901133050 | -17 | 0.0 | 0.0 | 0.00 | 0.00 | 0.00 | 1005.5 | ||
| 20260901131543 | -17 | 0.0 | 0.0 | 0.00 | 0.00 | 0.00 | 1005.4 | ||
| 20260901130038 | -17 | 0.0 | 0.0 | 0.00 | 0.00 | 0.00 | 1005.4 | ||
| 20260901124541 | -17 | 0.0 | 0.0 | 0.00 | 0.00 | 0.00 | 1005.3 | ||
| 20260901123028 | -17 | 0.0 | 0.0 | 0.00 | 0.00 | 0.00 | 1005.3 | ||
| 20260901121523 | -17 | 0.0 | 0.0 | 0.00 | 0.00 | 0.00 | 1005.4 | ||
| 20260901120021 | 13 | 66 | 3.2 | 4.8 | 0.00 | 0.00 | 0.00 | 51 | 1005.4 |
| 20260901114520 | 13 | 81 | 4.8 | 6.4 | 0.00 | 0.00 | 0.00 | 52 | 1005.3 |
| 20260901113020 | 14 | 80 | 4.8 | 4.8 | 0.00 | 0.00 | 0.00 | 48 | 1005.3 |
| 20260901111518 | 15 | 77 | 3.2 | 4.8 | 0.00 | 0.00 | 0.00 | 48 | 1005.3 |
| 20260901110017 | 15 | 83 | 3.2 | 4.8 | 0.00 | 0.00 | 0.00 | 48 | 1005.4 |
| 20260901104516 | 15 | 83 | 3.2 | 4.8 | 0.00 | 0.00 | 0.00 | 47 | 1005.5 |
| 20260901103016 | 14 | 77 | 3.2 | 4.8 | 0.00 | 0.00 | 0.00 | 49 | 1005.6 |
| 20260901101513 | 14 | 86 | 3.2 | 3.2 | 0.00 | 0.00 | 0.00 | 50 | 1005.6 |
| 20260901100012 | 13 | 81 | 3.2 | 4.8 | 0.00 | 0.00 | 0.00 | 51 | 1005.7 |
| 20260901094516 | 13 | 69 | 1.6 | 4.8 | 0.00 | 0.00 | 0.00 | 50 | 1005.9 |
| 20260901093009 | 14 | 72 | 3.2 | 4.8 | 0.00 | 0.00 | 0.00 | 50 | 1006.0 |
| 20260901091507 | 13 | 76 | 4.8 | 6.4 | 0.00 | 0.00 | 0.00 | 51 | 1006.1 |
| 20260901090007 | 13 | 82 | 4.8 | 6.4 | 0.00 | 0.00 | 0.00 | 50 | 1006.1 |
| 20260901084506 | 13 | 79 | 3.2 | 4.8 | 0.00 | 0.00 | 0.00 | 51 | 1006.2 |
| 20260901083006 | 12 | 81 | 3.2 | 4.8 | 0.00 | 0.00 | 0.00 | 52 | 1006.2 |
| 20260901081503 | 12 | 72 | 3.2 | 4.8 | 0.00 | 0.00 | 0.00 | 53 | 1006.2 |
| 20260901080002 | 12 | 69 | 1.6 | 4.8 | 0.00 | 0.00 | 0.00 | 53 | 1006.3 |
| 20260901074559 | 13 | 83 | 3.2 | 4.8 | 0.00 | 0.00 | 0.00 | 51 | 1006.3 |
| 20260901073055 | 13 | 83 | 4.8 | 4.8 | 0.00 | 0.00 | 0.00 | 49 | 1006.4 |
| 20260901071554 | 14 | 80 | 3.2 | 4.8 | 0.00 | 0.00 | 0.00 | 49 | 1006.3 |
| 20260901070052 | 13 | 76 | 1.6 | 3.2 | 0.00 | 0.00 | 0.00 | 49 | 1006.3 |
| 20260901064551 | 13 | 85 | 3.2 | 6.4 | 0.00 | 0.00 | 0.00 | 49 | 1006.4 |
| 20260901063056 | 13 | 66 | 1.6 | 4.8 | 0.00 | 0.00 | 0.00 | 50 | 1006.5 |
| 20260901061549 | 13 | 79 | 3.2 | 4.8 | 0.00 | 0.00 | 0.00 | 50 | 1006.6 |
| 20260901060048 | 13 | 80 | 4.8 | 6.4 | 0.00 | 0.00 | 0.00 | 48 | 1006.4 |
| 20260901054548 | 13 | 83 | 1.6 | 3.2 | 0.00 | 0.00 | 0.00 | 49 | 1006.3 |
| 20260901053057 | 15 | 80 | 3.2 | 4.8 | 0.00 | 0.00 | 0.00 | 46 | 1006.4 |
| 20260901051551 | 15 | 83 | 3.2 | 6.4 | 0.00 | 0.00 | 0.00 | 45 | 1006.5 |
| 20260901050046 | 15 | 80 | 3.2 | 4.8 | 0.00 | 0.00 | 0.00 | 46 | 1006.6 |
| 20260901044546 | 15 | 80 | 3.2 | 4.8 | 0.00 | 0.00 | 0.00 | 44 | 1006.7 |
| 20260901043046 | 15 | 76 | 1.6 | 3.2 | 0.00 | 0.00 | 0.00 | 43 | 1006.7 |
| 20260901041549 | 15 | 85 | 1.6 | 4.8 | 0.00 | 0.00 | 0.00 | 42 | 1006.6 |
| 20260901040045 | 16 | 80 | 0.0 | 3.2 | 0.00 | 0.00 | 0.00 | 40 | 1006.6 |
| 20260901034544 | 18 | 114 | 1.6 | 3.2 | 0.00 | 0.00 | 0.00 | 36 | 1006.5 |
| 20260901033046 | 18 | 89 | 1.6 | 4.8 | 0.00 | 0.00 | 0.00 | 35 | 1006.3 |
| 20260901031544 | 19 | 130 | 3.2 | 6.4 | 0.00 | 0.00 | 0.00 | 34 | 1006.3 |
| 20260901030043 | 19 | 72 | 1.6 | 4.8 | 0.00 | 0.00 | 0.00 | 32 | 1006.2 |
| 20260901024542 | 20 | 124 | 0.0 | 3.2 | 0.00 | 0.00 | 0.00 | 32 | 1006.2 |
| 20260901023041 | 21 | 83 | 6.4 | 8.0 | 0.00 | 0.00 | 0.00 | 32 | 1006.2 |
| 20260901021540 | 21 | 97 | 3.2 | 8.0 | 0.00 | 0.00 | 0.00 | 30 | 1006.2 |
| 20260901020039 | 22 | 41 | 3.2 | 8.0 | 0.00 | 0.00 | 0.00 | 28 | 1006.3 |
| 20260901014538 | 23 | 47 | 4.8 | 17.7 | 0.00 | 0.00 | 0.00 | 26 | 1006.4 |
| 20260901013037 | 24 | 55 | 3.2 | 16.1 | 0.00 | 0.00 | 0.00 | 25 | 1006.4 |
| 20260901011539 | 24 | 335 | 6.4 | 12.9 | 0.00 | 0.00 | 0.00 | 24 | 1006.4 |
| 20260901010040 | 25 | 16 | 6.4 | 22.5 | 0.00 | 0.00 | 0.00 | 24 | 1006.6 |
| 20260901004533 | 25 | 19 | 9.7 | 17.7 | 0.00 | 0.00 | 0.00 | 24 | 1006.6 |
| 20260901003032 | 25 | 51 | 6.4 | 24.1 | 0.00 | 0.00 | 0.00 | 24 | 1006.9 |
| 20260901001532 | 25 | 34 | 11.3 | 17.7 | 0.00 | 0.00 | 0.00 | 24 | 1007.0 |
| 20260901000035 | 25 | 43 | 12.9 | 22.5 | 0.00 | 0.00 | 0.00 | 24 | 1007.2 |
| 20260831234528 | 25 | 64 | 12.9 | 22.5 | 0.00 | 0.00 | 0.00 | 24 | 1007.3 |
| 20260831233027 | 25 | 40 | 12.9 | 20.9 | 0.00 | 0.00 | 0.00 | 24 | 1007.5 |
| 20260831231525 | 25 | 52 | 12.9 | 22.5 | 0.00 | 0.00 | 0.00 | 25 | 1007.7 |
| 20260831230023 | 25 | 315 | 11.3 | 22.5 | 0.00 | 0.00 | 0.00 | 26 | 1007.8 |
| 20260831224522 | 25 | 359 | 9.7 | 17.7 | 0.00 | 0.00 | 0.00 | 25 | 1008.0 |
| 20260831223025 | 25 | 34 | 11.3 | 19.3 | 0.00 | 0.00 | 0.00 | 25 | 1008.3 |
| 20260831221521 | 25 | 72 | 12.9 | 27.4 | 0.00 | 0.00 | 0.00 | 26 | 1008.4 |
| 20260831220016 | 25 | 13 | 12.9 | 22.5 | 0.00 | 0.00 | 0.00 | 26 | 1008.8 |
| 20260831214513 | 25 | 54 | 9.7 | 22.5 | 0.00 | 0.00 | 0.00 | 26 | 1009.0 |
| 20260831213011 | 25 | 30 | 11.3 | 24.1 | 0.00 | 0.00 | 0.00 | 27 | 1009.1 |
| 20260831211509 | 25 | 334 | 8.0 | 22.5 | 0.00 | 0.00 | 0.00 | 26 | 1009.2 |
| 20260831210015 | 25 | 324 | 9.7 | 19.3 | 0.00 | 0.00 | 0.00 | 25 | 1009.4 |
| 20260831204504 | 24 | 44 | 9.7 | 24.1 | 0.00 | 0.00 | 0.00 | 24 | 1009.7 |
| 20260831203002 | 24 | 64 | 16.1 | 24.1 | 0.00 | 0.00 | 0.00 | 26 | 1009.7 |
| 20260831201612 | 24 | 23 | 11.3 | 20.9 | 0.00 | 0.00 | 0.00 | 25 | 1010.0 |
| 20260831200057 | 24 | 28 | 9.7 | 19.3 | 0.00 | 0.00 | 0.00 | 26 | 1010.3 |
| 20260831194553 | 23 | 49 | 9.7 | 19.3 | 0.00 | 0.00 | 0.00 | 26 | 1010.4 |
| 20260831193123 | 23 | 41 | 12.9 | 24.1 | 0.00 | 0.00 | 0.00 | 26 | 1010.6 |
| 20260831191551 | 23 | 41 | 9.7 | 19.3 | 0.00 | 0.00 | 0.00 | 27 | 1010.8 |
| 20260831190049 | 22 | 305 | 9.7 | 17.7 | 0.00 | 0.00 | 0.00 | 28 | 1011.1 |
| 20260831184542 | 22 | 47 | 8.0 | 20.9 | 0.00 | 0.00 | 0.00 | 28 | 1011.3 |
| 20260831183050 | 22 | 52 | 8.0 | 17.7 | 0.00 | 0.00 | 0.00 | 28 | 1011.5 |
| 20260831181549 | 22 | 6 | 8.0 | 16.1 | 0.00 | 0.00 | 0.00 | 29 | 1011.7 |
| 20260831180038 | 21 | 23 | 9.7 | 17.7 | 0.00 | 0.00 | 0.00 | 31 | 1011.9 |
| 20260831174531 | 21 | 8 | 6.4 | 19.3 | 0.00 | 0.00 | 0.00 | 32 | 1012.1 |
| 20260831173028 | 20 | 35 | 6.4 | 16.1 | 0.00 | 0.00 | 0.00 | 32 | 1012.3 |
| 20260831171527 | 20 | 325 | 9.7 | 17.7 | 0.00 | 0.00 | 0.00 | 32 | 1012.3 |
| 20260831170025 | 20 | 38 | 6.4 | 19.3 | 0.00 | 0.00 | 0.00 | 32 | 1012.3 |
| 20260831164524 | 20 | 357 | 6.4 | 16.1 | 0.00 | 0.00 | 0.00 | 32 | 1012.4 |
| 20260831163026 | 20 | 311 | 4.8 | 14.5 | 0.00 | 0.00 | 0.00 | 32 | 1012.4 |
| 20260831161534 | 20 | 23 | 8.0 | 16.1 | 0.00 | 0.00 | 0.00 | 32 | 1012.7 |
| 20260831160020 | 20 | 65 | 9.7 | 17.7 | 0.00 | 0.00 | 0.00 | 33 | 1012.8 |
| 20260831154516 | 19 | 7 | 4.8 | 12.9 | 0.00 | 0.00 | 0.00 | 34 | 1012.8 |
| 20260831153012 | 18 | 50 | 6.4 | 12.9 | 0.00 | 0.00 | 0.00 | 36 | 1012.8 |
| 20260831151508 | 18 | 10 | 6.4 | 12.9 | 0.00 | 0.00 | 0.00 | 37 | 1012.8 |